AWW41MK EGFF-EHAM

Flight info

Callsign AWW41MK
Flight time 1h 3m
Altitude 29000
Route LEKCI P4 HAWFA L607 ALHAD P72 IPRIL M197 REDFA
Aircraft A320/M-SDE3FGHIRWY/LB1

Departure

Time 2026-04-28 16:19
Airport Cardiff International Airport (EGFF)

Arrival

Time 2026-04-28 17:23
Airport Amsterdam Airport Schiphol (EHAM)
Time Latitude Longitude Altitude Speed Heading
2026-04-28 15:51 51.39913 -3.34164 223 ft 0 kts 116°
2026-04-28 16:03 51.39916 -3.34175 222 ft 3 kts 120°
2026-04-28 16:04 51.39928 -3.34200 223 ft 3 kts 143°
2026-04-28 16:04 51.39944 -3.34214 223 ft 3 kts 179°
2026-04-28 16:04 51.39959 -3.34210 223 ft 1 kts 206°
2026-04-28 16:04 51.39963 -3.34207 223 ft 1 kts 207°
2026-04-28 16:05 51.39963 -3.34206 223 ft 1 kts 207°
2026-04-28 16:08 51.39962 -3.34207 223 ft 1 kts 207°
2026-04-28 16:08 51.39953 -3.34214 222 ft 2 kts 206°
2026-04-28 16:08 51.39938 -3.34227 225 ft 3 kts 206°
2026-04-28 16:09 51.39912 -3.34247 223 ft 6 kts 206°
2026-04-28 16:09 51.39855 -3.34330 224 ft 13 kts 265°
2026-04-28 16:09 51.39881 -3.34452 227 ft 11 kts 297°
2026-04-28 16:10 51.39949 -3.34657 222 ft 12 kts 297°
2026-04-28 16:10 51.39986 -3.34777 223 ft 12 kts 296°
2026-04-28 16:10 51.40063 -3.35026 217 ft 13 kts 297°
2026-04-28 16:11 51.40127 -3.35222 220 ft 8 kts 297°
2026-04-28 16:11 51.40153 -3.35374 217 ft 7 kts 263°
2026-04-28 16:12 51.40140 -3.35441 217 ft 0 kts 240°
2026-04-28 16:15 51.40135 -3.35453 224 ft 6 kts 236°
2026-04-28 16:15 51.40128 -3.35467 220 ft 0 kts 229°
2026-04-28 16:16 51.40126 -3.35470 219 ft 0 kts 229°
2026-04-28 16:17 51.40125 -3.35473 218 ft 2 kts 229°
2026-04-28 16:17 51.40104 -3.35499 220 ft 5 kts 216°
2026-04-28 16:18 51.40075 -3.35524 219 ft 4 kts 206°
2026-04-28 16:18 51.40044 -3.35527 219 ft 4 kts 159°
2026-04-28 16:18 51.40028 -3.35492 216 ft 3 kts 120°
2026-04-28 16:18 51.39990 -3.35369 220 ft 40 kts 115°
2026-04-28 16:19 51.39746 -3.34598 221 ft 110 kts 117°
2026-04-28 16:19 51.39311 -3.33278 422 ft 141 kts 116°
2026-04-28 16:19 51.38839 -3.31914 1108 ft 142 kts 113°
2026-04-28 16:19 51.38285 -3.30551 1672 ft 156 kts 124°
2026-04-28 16:20 51.37629 -3.29061 2043 ft 173 kts 108°
2026-04-28 16:20 51.37342 -3.27126 2410 ft 188 kts 88°
2026-04-28 16:20 51.37595 -3.24972 2785 ft 210 kts 64°
2026-04-28 16:20 51.38523 -3.23039 3299 ft 232 kts 38°
2026-04-28 16:21 51.40048 -3.22039 4160 ft 246 kts
2026-04-28 16:21 51.41794 -3.22134 5107 ft 253 kts
2026-04-28 16:21 51.43498 -3.21612 5956 ft 250 kts 29°
2026-04-28 16:21 51.44877 -3.19980 6817 ft 248 kts 53°
2026-04-28 16:22 51.45676 -3.17545 7653 ft 249 kts 76°
2026-04-28 16:22 51.46081 -3.14825 8563 ft 252 kts 78°
2026-04-28 16:22 51.46487 -3.12060 9453 ft 257 kts 78°
2026-04-28 16:22 51.46895 -3.09286 10304 ft 261 kts 78°
2026-04-28 16:23 51.47334 -3.06319 10721 ft 282 kts 77°
2026-04-28 16:23 51.47803 -3.03163 11187 ft 297 kts 77°
2026-04-28 16:23 51.48286 -2.99910 11964 ft 301 kts 77°
2026-04-28 16:23 51.48771 -2.96628 12878 ft 303 kts 77°
2026-04-28 16:24 51.49248 -2.93379 13727 ft 304 kts 76°
2026-04-28 16:24 51.49733 -2.90066 14530 ft 306 kts 76°
2026-04-28 16:24 51.50221 -2.86729 15130 ft 309 kts 76°
2026-04-28 16:24 51.50713 -2.83369 15312 ft 310 kts 76°
2026-04-28 16:25 51.51206 -2.80009 15383 ft 310 kts 76°
2026-04-28 16:25 51.51700 -2.76620 16009 ft 312 kts 76°
2026-04-28 16:25 51.52191 -2.73225 16782 ft 313 kts 76°
2026-04-28 16:25 51.52685 -2.69804 17517 ft 315 kts 76°
2026-04-28 16:26 51.53182 -2.66367 18250 ft 317 kts 76°
2026-04-28 16:26 51.53451 -2.62845 18905 ft 321 kts 86°
2026-04-28 16:26 51.53289 -2.59251 19540 ft 324 kts 92°
2026-04-28 16:26 51.53047 -2.55642 20185 ft 325 kts 91°
2026-04-28 16:27 51.52805 -2.52018 20828 ft 327 kts 91°
2026-04-28 16:27 51.52560 -2.48389 21468 ft 328 kts 91°
2026-04-28 16:27 51.52064 -2.41067 22740 ft 331 kts 90°
2026-04-28 16:28 51.51818 -2.37379 23363 ft 333 kts 90°
2026-04-28 16:28 51.51568 -2.33669 23945 ft 335 kts 90°
2026-04-28 16:28 51.51315 -2.29939 24426 ft 338 kts 90°
2026-04-28 16:28 51.51058 -2.26183 24886 ft 340 kts 91°
2026-04-28 16:29 51.50530 -2.18574 25761 ft 345 kts 91°
2026-04-28 16:29 51.49998 -2.10911 26592 ft 350 kts 91°
2026-04-28 16:30 51.49722 -2.07014 27010 ft 353 kts 91°
2026-04-28 16:30 51.49445 -2.03096 27412 ft 355 kts 91°
2026-04-28 16:30 51.49168 -1.99149 27808 ft 357 kts 91°
2026-04-28 16:30 51.48888 -1.95169 28188 ft 360 kts 91°
2026-04-28 16:31 51.48607 -1.91172 28565 ft 363 kts 92°
2026-04-28 16:31 51.48319 -1.87124 28880 ft 367 kts 92°
2026-04-28 16:31 51.48022 -1.83045 29227 ft 370 kts 92°
2026-04-28 16:31 51.47718 -1.78930 29574 ft 373 kts 92°
2026-04-28 16:32 51.47411 -1.74789 29916 ft 375 kts 93°
2026-04-28 16:32 51.46726 -1.66476 30294 ft 371 kts 97°
2026-04-28 16:32 51.46180 -1.62530 30295 ft 356 kts 97°
2026-04-28 16:33 51.45305 -1.56170 30296 ft 349 kts 97°
2026-04-28 16:33 51.44106 -1.47301 30281 ft 348 kts 97°
2026-04-28 16:34 51.43080 -1.39725 30281 ft 349 kts 98°
2026-04-28 16:34 51.42031 -1.32115 30270 ft 350 kts 98°
2026-04-28 16:35 51.40963 -1.24501 30271 ft 350 kts 98°
2026-04-28 16:35 51.40233 -1.16851 30268 ft 345 kts 85°
2026-04-28 16:36 51.41305 -1.09482 30264 ft 342 kts 65°
2026-04-28 16:36 51.43408 -1.02639 30258 ft 342 kts 65°
2026-04-28 16:37 51.45495 -0.95782 30247 ft 342 kts 65°
2026-04-28 16:38 51.48635 -0.85455 30239 ft 345 kts 66°
2026-04-28 16:38 51.50744 -0.78510 30241 ft 347 kts 66°
2026-04-28 16:39 51.52856 -0.71530 30248 ft 348 kts 66°
2026-04-28 16:39 51.54971 -0.64532 30253 ft 349 kts 66°
2026-04-28 16:40 51.57083 -0.57499 30258 ft 349 kts 66°
2026-04-28 16:40 51.59181 -0.50487 30253 ft 347 kts 66°
2026-04-28 16:41 51.61271 -0.43502 30260 ft 346 kts 66°
2026-04-28 16:41 51.63349 -0.36526 30264 ft 345 kts 66°
2026-04-28 16:41 51.64384 -0.33040 30428 ft 345 kts 66°
2026-04-28 16:42 51.65420 -0.29549 30427 ft 345 kts 66°
2026-04-28 16:42 51.67130 -0.23759 30427 ft 345 kts 68°
2026-04-28 16:43 51.68558 -0.16409 30427 ft 344 kts 74°
2026-04-28 16:43 51.69991 -0.07686 30406 ft 344 kts 76°
2026-04-28 16:44 51.71128 -0.00244 30377 ft 345 kts 77°
2026-04-28 16:44 51.72280 0.07293 30274 ft 347 kts 76°
2026-04-28 16:45 51.73446 0.14860 30275 ft 349 kts 76°
2026-04-28 16:45 51.74621 0.22455 30279 ft 349 kts 76°
2026-04-28 16:46 51.75793 0.30079 30281 ft 349 kts 76°
2026-04-28 16:46 51.76957 0.37689 30281 ft 350 kts 76°
2026-04-28 16:47 51.78121 0.45314 30280 ft 350 kts 77°
2026-04-28 16:47 51.79274 0.52944 30255 ft 350 kts 77°
2026-04-28 16:48 51.80419 0.60609 30244 ft 351 kts 77°
2026-04-28 16:48 51.81565 0.68253 30261 ft 348 kts 76°
2026-04-28 16:49 51.82740 0.75830 30281 ft 347 kts 76°
2026-04-28 16:49 51.83910 0.83372 30290 ft 346 kts 75°
2026-04-28 16:50 51.85246 0.90829 30290 ft 345 kts 73°
2026-04-28 16:50 51.86646 0.98255 30264 ft 345 kts 74°
2026-04-28 16:51 51.88022 1.05718 30249 ft 347 kts 74°
2026-04-28 16:51 51.89380 1.13233 30245 ft 349 kts 74°
2026-04-28 16:52 51.90510 1.19516 30261 ft 350 kts 74°
2026-04-28 16:52 51.91864 1.27088 30263 ft 350 kts 75°
2026-04-28 16:53 51.93216 1.34676 30264 ft 351 kts 74°
2026-04-28 16:53 51.94574 1.42269 30272 ft 351 kts 74°
2026-04-28 16:54 51.95920 1.49873 30252 ft 352 kts 75°
2026-04-28 16:54 51.97266 1.57532 30257 ft 353 kts 75°
2026-04-28 16:55 51.98610 1.65200 30266 ft 354 kts 75°
2026-04-28 16:55 51.99920 1.72912 30273 ft 354 kts 76°
2026-04-28 16:56 52.01125 1.80672 30270 ft 355 kts 76°
2026-04-28 16:56 52.02317 1.88496 30166 ft 364 kts 76°
2026-04-28 16:56 52.02925 1.92504 29457 ft 367 kts 76°
2026-04-28 16:57 52.03534 1.96486 28983 ft 359 kts 76°
2026-04-28 16:57 52.04125 2.00326 28621 ft 351 kts 76°
2026-04-28 16:57 52.04711 2.04136 28233 ft 344 kts 76°
2026-04-28 16:57 52.05285 2.07882 27851 ft 339 kts 76°
2026-04-28 16:58 52.05849 2.11565 27468 ft 334 kts 76°
2026-04-28 16:58 52.06403 2.15196 27093 ft 329 kts 76°
2026-04-28 16:58 52.06948 2.18773 26708 ft 324 kts 76°
2026-04-28 16:58 52.07485 2.22304 26341 ft 319 kts 76°
2026-04-28 16:59 52.08011 2.25782 25965 ft 315 kts 77°
2026-04-28 16:59 52.08530 2.29222 25578 ft 311 kts 77°
2026-04-28 16:59 52.09044 2.32622 25201 ft 308 kts 77°
2026-04-28 16:59 52.09552 2.35993 24795 ft 305 kts 77°
2026-04-28 17:00 52.10050 2.39328 24418 ft 303 kts 77°
2026-04-28 17:00 52.10543 2.42648 24028 ft 300 kts 77°
2026-04-28 17:00 52.11033 2.45943 23597 ft 299 kts 77°
2026-04-28 17:00 52.11663 2.49138 23205 ft 296 kts 67°
2026-04-28 17:01 52.12667 2.52131 22958 ft 311 kts 61°
2026-04-28 17:01 52.13789 2.55209 22675 ft 319 kts 61°
2026-04-28 17:01 52.14921 2.58320 22384 ft 319 kts 61°
2026-04-28 17:01 52.16051 2.61434 22113 ft 319 kts 62°
2026-04-28 17:02 52.17176 2.64537 21815 ft 317 kts 62°
2026-04-28 17:02 52.18294 2.67629 21534 ft 316 kts 62°
2026-04-28 17:02 52.19408 2.70717 21257 ft 315 kts 62°
2026-04-28 17:02 52.20512 2.73787 20974 ft 313 kts 62°
2026-04-28 17:03 52.22708 2.79907 20414 ft 312 kts 62°
2026-04-28 17:03 52.23783 2.82905 20139 ft 310 kts 62°
2026-04-28 17:03 52.24887 2.85981 19872 ft 310 kts 62°
2026-04-28 17:04 52.27047 2.92011 19316 ft 306 kts 62°
2026-04-28 17:04 52.28121 2.95015 19039 ft 305 kts 62°
2026-04-28 17:05 52.30236 3.00945 18479 ft 305 kts 62°
2026-04-28 17:05 52.31315 3.03976 18189 ft 304 kts 62°
2026-04-28 17:05 52.32371 3.06946 17914 ft 302 kts 62°
2026-04-28 17:06 52.33708 3.13287 17377 ft 296 kts 91°
2026-04-28 17:06 52.33479 3.16575 17117 ft 296 kts 97°
2026-04-28 17:06 52.32890 3.23224 16584 ft 294 kts 97°
2026-04-28 17:07 52.32593 3.26529 16327 ft 292 kts 97°
2026-04-28 17:07 52.32297 3.29797 16071 ft 292 kts 97°
2026-04-28 17:07 52.31999 3.33072 15817 ft 293 kts 97°
2026-04-28 17:07 52.31700 3.36358 15567 ft 290 kts 98°
2026-04-28 17:08 52.31403 3.39611 15317 ft 288 kts 97°
2026-04-28 17:08 52.31110 3.42814 15083 ft 282 kts 97°
2026-04-28 17:08 52.30823 3.45975 14765 ft 280 kts 98°
2026-04-28 17:08 52.30537 3.49117 14436 ft 279 kts 97°
2026-04-28 17:09 52.30252 3.52250 14095 ft 278 kts 98°
2026-04-28 17:09 52.29965 3.55375 13738 ft 277 kts 97°
2026-04-28 17:09 52.29677 3.58477 13392 ft 275 kts 98°
2026-04-28 17:09 52.29391 3.61555 13059 ft 273 kts 98°
2026-04-28 17:10 52.29106 3.64610 12726 ft 271 kts 98°
2026-04-28 17:10 52.28818 3.67687 12391 ft 281 kts 98°
2026-04-28 17:10 52.28520 3.70869 12036 ft 287 kts 98°
2026-04-28 17:10 52.28219 3.74086 11698 ft 285 kts 98°
2026-04-28 17:11 52.27918 3.77284 11330 ft 284 kts 98°
2026-04-28 17:11 52.27619 3.80453 10965 ft 283 kts 98°
2026-04-28 17:11 52.27319 3.83621 10574 ft 283 kts 98°
2026-04-28 17:11 52.27021 3.86772 10247 ft 280 kts 98°
2026-04-28 17:12 52.26727 3.89898 9890 ft 276 kts 98°
2026-04-28 17:12 52.26431 3.92999 9444 ft 276 kts 97°
2026-04-28 17:12 52.26138 3.96052 8921 ft 279 kts 98°
2026-04-28 17:12 52.25835 3.99185 8490 ft 277 kts 98°
2026-04-28 17:13 52.25531 4.02325 8111 ft 273 kts 98°
2026-04-28 17:13 52.25239 4.05349 7623 ft 274 kts 98°
2026-04-28 17:13 52.24938 4.08449 7208 ft 273 kts 98°
2026-04-28 17:13 52.24647 4.11455 6829 ft 270 kts 98°
2026-04-28 17:14 52.24353 4.14473 6387 ft 268 kts 98°
2026-04-28 17:14 52.24064 4.17456 5960 ft 266 kts 98°
2026-04-28 17:14 52.23773 4.20426 5512 ft 264 kts 98°
2026-04-28 17:14 52.23485 4.23365 5146 ft 260 kts 98°
2026-04-28 17:15 52.23207 4.26198 4973 ft 248 kts 98°
2026-04-28 17:15 52.22936 4.28951 4595 ft 244 kts 98°
2026-04-28 17:15 52.22670 4.31636 4205 ft 241 kts 97°
2026-04-28 17:15 52.22404 4.34328 3856 ft 236 kts 97°
2026-04-28 17:16 52.22146 4.36887 3702 ft 218 kts 97°
2026-04-28 17:16 52.21911 4.39204 3605 ft 197 kts 96°
2026-04-28 17:16 52.21699 4.41299 3518 ft 179 kts 96°
2026-04-28 17:16 52.21504 4.43245 3446 ft 171 kts 96°
2026-04-28 17:17 52.21314 4.45140 3368 ft 170 kts 95°
2026-04-28 17:17 52.21124 4.47047 3295 ft 170 kts 96°
2026-04-28 17:17 52.20933 4.48954 3225 ft 170 kts 96°
2026-04-28 17:17 52.20749 4.50855 3151 ft 169 kts 91°
2026-04-28 17:18 52.20879 4.52733 2980 ft 168 kts 70°
2026-04-28 17:18 52.21439 4.54388 2772 ft 166 kts 59°
2026-04-28 17:18 52.22038 4.55926 2559 ft 154 kts 59°
2026-04-28 17:18 52.22592 4.57355 2343 ft 144 kts 59°
2026-04-28 17:19 52.23112 4.58697 2143 ft 134 kts 60°
2026-04-28 17:19 52.23595 4.59944 1966 ft 127 kts 60°
2026-04-28 17:19 52.24063 4.61154 1792 ft 125 kts 59°
2026-04-28 17:19 52.24524 4.62347 1627 ft 123 kts 58°
2026-04-28 17:20 52.24977 4.63521 1461 ft 122 kts 57°
2026-04-28 17:20 52.25280 4.64304 1358 ft 122 kts 58°
2026-04-28 17:20 52.25888 4.65879 1136 ft 122 kts 58°
2026-04-28 17:20 52.26334 4.67036 975 ft 122 kts 59°
2026-04-28 17:21 52.26789 4.68215 806 ft 123 kts 60°
2026-04-28 17:21 52.27241 4.69385 675 ft 120 kts 56°
2026-04-28 17:21 52.27685 4.70564 511 ft 123 kts 56°
2026-04-28 17:22 52.28593 4.72885 146 ft 120 kts 57°
2026-04-28 17:22 52.29033 4.74046 26 ft 119 kts 56°
2026-04-28 17:22 52.29432 4.75073 -4 ft 84 kts 58°
2026-04-28 17:23 52.29763 4.75786 -4 ft 16 kts 30°
2026-04-28 17:23 52.29853 4.75864 -4 ft 13 kts 28°
2026-04-28 17:23 52.29930 4.75930 -3 ft 13 kts 27°
2026-04-28 17:23 52.30002 4.76011 -2 ft 12 kts 51°
2026-04-28 17:24 52.30041 4.76113 -3 ft 10 kts 58°
2026-04-28 17:24 52.30079 4.76215 -3 ft 11 kts 58°
2026-04-28 17:24 52.30146 4.76387 -2 ft 25 kts 58°
2026-04-28 17:24 52.30221 4.76584 -2 ft 12 kts 58°
2026-04-28 17:25 52.30261 4.76688 -2 ft 10 kts 58°
2026-04-28 17:25 52.30321 4.76844 -3 ft 6 kts 58°
2026-04-28 17:25 52.30342 4.76899 -3 ft 6 kts 58°
2026-04-28 17:26 52.30369 4.76968 -3 ft 8 kts 58°
2026-04-28 17:26 52.30408 4.77070 -3 ft 14 kts 58°
2026-04-28 17:26 52.30446 4.77169 -3 ft 12 kts 58°
2026-04-28 17:26 52.30494 4.77296 -3 ft 11 kts 57°
2026-04-28 17:27 52.30534 4.77336 -3 ft 6 kts
2026-04-28 17:27 52.30548 4.77332 -3 ft 0 kts 345°
2026-04-28 17:28 52.30637 4.77215 -2 ft 10 kts 291°
2026-04-28 17:28 52.30642 4.77124 -2 ft 0 kts 273°
2026-04-28 17:29 52.30649 4.77118 -2 ft 1 kts 349°
2026-04-28 17:30 52.30683 4.77151 -2 ft 0 kts
2026-04-28 17:30 52.30696 4.77152 -2 ft 1 kts
2026-04-28 17:30 52.30698 4.77152 -2 ft 0 kts